Date String (YYYY-MM-DD hh:mm:ss) UTC,Instrument flags,Ambient pressure (hPa),Sample flow (lpm),Bypass flow (lpm),Sample temperature (°C),Ambient temperature (°C),ASC tube jacket temperature (°C),LED temperature (°C),Box temperature (°C),Sample RH (%),Span deviation,Mass concentration (μg/m³),Mass concentration (μg/m³),Mass concentration (μg/m³)
DateTimeUTC,F1_M11,P_M11,Q1_M11,Q2_M11,T1_M11,T2_M11,T3_M11,T4_M11,T5_M11,U1_M11,ZSPAN_M11,X0_M11,X2_M11,X1_M11
2022-09-13 16:00:00,,0826.5,4.99,0.00,30.5,28.7,00.0,39.2,32.2,11.8,0000.3,0019.67,0014.12,0013.28
2022-09-13 16:01:00,,0826.5,5.00,0.00,30.5,28.8,00.0,39.2,32.2,12.1,0000.6,0019.92,0014.47,0013.63
2022-09-13 16:02:00,,0826.5,5.02,0.00,30.5,28.9,00.0,39.2,32.2,11.9,0001.1,0020.45,0014.82,0014.00
2022-09-13 16:03:00,,0826.5,4.99,0.00,30.5,29.0,00.0,39.2,32.2,11.8,0001.5,0021.07,0015.14,0014.29
2022-09-13 16:04:00,,0826.5,5.00,0.00,30.5,29.1,00.0,39.2,32.3,11.7,0001.6,0021.50,0015.36,0014.49
2022-09-13 16:05:00,,0826.5,5.00,0.00,30.5,29.1,00.0,39.2,32.3,11.8,0002.1,0021.88,0015.61,0014.75
2022-09-13 16:06:00,,0826.5,5.00,0.00,30.5,29.2,00.0,39.2,32.3,11.9,0002.4,0022.48,0015.86,0015.05
2022-09-13 16:07:00,,0826.5,5.01,0.00,30.5,29.2,00.0,39.3,32.3,11.2,0002.5,0022.95,0016.11,0015.27
2022-09-13 16:08:00,,0826.5,5.00,0.00,30.6,29.3,00.0,39.3,32.4,11.9,0002.2,0023.09,0016.23,0015.38
2022-09-13 16:09:00,,0826.5,5.00,0.00,30.6,29.3,00.0,39.3,32.4,11.0,0001.9,0023.31,0016.38,0015.48
2022-09-13 16:10:00,,0826.5,5.00,0.00,30.6,29.4,00.0,39.3,32.4,10.6,0001.9,0023.49,0016.53,0015.64
2022-09-13 16:11:00,,0826.5,5.00,0.00,30.6,29.4,00.0,39.3,32.4,10.5,0001.5,0023.75,0016.71,0015.82
2022-09-13 16:12:00,,0826.5,4.99,0.00,30.7,29.4,00.0,39.3,32.4,11.0,0001.5,0023.70,0016.79,0015.88
2022-09-13 16:13:00,,0826.5,4.99,0.00,30.7,29.5,00.0,39.3,32.5,12.4,0001.2,0024.14,0016.89,0015.97
2022-09-13 16:14:00,,0826.5,5.01,0.00,30.7,29.4,00.0,39.4,32.5,12.6,0001.1,0024.01,0016.84,0015.99
2022-09-13 16:15:00,,0826.5,4.99,0.00,30.7,28.5,00.0,39.4,32.5,11.8,0001.4,0024.45,0017.05,0016.20
2022-09-13 16:16:00,,0826.5,5.00,0.00,30.7,27.3,00.0,39.3,32.3,12.0,0001.0,0024.80,0017.35,0016.47
2022-09-13 16:17:00,,0826.5,5.00,0.00,30.6,27.3,00.0,39.3,32.3,12.3,0001.0,0024.77,0017.58,0016.66
2022-09-13 16:18:00,,0826.5,4.99,0.00,30.5,27.5,00.0,39.2,32.2,11.9,0001.2,0024.87,0017.78,0016.85
2022-09-13 16:19:00,,0826.5,5.00,0.00,30.5,27.9,00.0,39.2,32.1,12.0,0001.5,0025.36,0018.07,0017.11
2022-09-13 16:20:00,,0826.5,5.01,0.00,30.5,28.2,00.0,39.2,32.1,12.0,0002.3,0025.75,0018.33,0017.33
2022-09-13 16:21:00,,0826.5,5.00,0.00,30.4,28.4,00.0,39.2,32.1,11.7,0002.6,0026.38,0018.76,0017.71
2022-09-13 16:22:00,,0826.5,5.01,0.00,30.4,28.6,00.0,39.2,32.1,11.7,0002.4,0027.09,0019.24,0018.15
2022-09-13 16:23:00,,0826.5,5.00,0.00,30.4,28.7,00.0,39.2,32.2,11.1,0002.3,0028.68,0019.77,0018.61
2022-09-13 16:24:00,,0826.5,4.99,0.00,30.4,28.9,00.0,39.2,32.2,11.3,0002.8,0029.19,0020.42,0019.25
2022-09-13 16:25:00,,0826.5,5.01,0.00,30.5,29.0,00.0,39.2,32.2,12.4,0002.6,0030.08,0021.01,0019.81
2022-09-13 16:26:00,,0826.5,4.99,0.00,30.5,29.1,00.0,39.2,32.2,12.3,0002.3,0031.06,0021.16,0019.91
2022-09-13 16:27:00,,0826.5,5.00,0.00,30.5,29.1,00.0,39.2,32.3,12.2,0002.4,0031.89,0021.16,0019.94
2022-09-13 16:28:00,,0826.5,5.00,0.00,30.5,29.2,00.0,39.2,32.3,12.6,0002.3,0031.96,0021.18,0019.94
2022-09-13 16:29:00,,0826.5,5.01,0.00,30.5,29.2,00.0,39.2,32.3,12.1,0002.1,0032.12,0021.25,0020.02
2022-09-13 16:30:00,,0826.5,5.00,0.00,30.5,29.3,00.0,39.2,32.4,12.1,0001.5,0031.97,0021.23,0020.07
2022-09-13 16:31:00,,0826.5,5.00,0.00,30.6,29.3,00.0,39.2,32.4,12.1,0001.4,0031.90,0021.21,0020.09
2022-09-13 16:32:00,,0826.5,5.01,0.00,30.6,28.3,00.0,39.2,32.4,11.8,0001.3,0031.74,0021.16,0020.06
2022-09-13 16:33:00,,0826.5,5.00,0.00,30.5,27.1,00.0,39.2,32.2,11.9,0001.4,0031.46,0021.01,0019.95
2022-09-13 16:34:00,,0826.4,5.00,0.00,30.5,27.0,00.0,39.1,32.2,12.4,0001.7,0030.46,0020.90,0019.85
2022-09-13 16:35:00,,0826.4,5.00,0.00,30.4,27.3,00.0,39.1,32.0,12.1,0001.2,0029.94,0020.61,0019.60
2022-09-13 16:36:00,,0826.4,4.99,0.00,30.3,27.6,00.0,39.1,32.0,12.0,0001.3,0029.48,0020.48,0019.51
2022-09-13 16:37:00,,0826.4,5.00,0.00,30.3,27.9,00.0,39.0,32.0,12.4,0001.2,0028.45,0020.53,0019.63
2022-09-13 16:38:00,,0826.4,5.01,0.00,30.3,28.2,00.0,39.0,32.0,12.6,0001.0,0027.81,0020.55,0019.64
2022-09-13 16:39:00,,0826.4,4.99,0.00,30.3,28.4,00.0,39.0,32.0,12.6,0000.7,0028.21,0020.71,0019.77
2022-09-13 16:40:00,,0826.4,5.01,0.00,30.3,28.6,00.0,39.0,32.0,12.2,0000.4,0028.46,0020.74,0019.78
2022-09-13 16:41:00,,0826.4,5.00,0.00,30.3,28.7,00.0,39.0,32.1,12.4,0000.7,0029.60,0020.82,0019.82
2022-09-13 16:42:00,,0826.4,4.99,0.00,30.3,28.8,00.0,39.0,32.1,12.2,0000.6,0029.97,0020.97,0019.97
2022-09-13 16:43:00,,0826.4,5.00,0.00,30.3,28.9,00.0,39.0,32.1,12.3,0000.5,0029.93,0020.95,0019.99
2022-09-13 16:44:00,,0826.4,4.99,0.00,30.3,29.0,00.0,39.1,32.2,12.2,0000.5,0029.95,0020.93,0019.95
2022-09-13 16:45:00,,0826.4,5.00,0.00,30.4,29.1,00.0,39.1,32.2,12.1,0000.6,0029.65,0020.82,0019.88
2022-09-13 16:46:00,,0826.3,5.00,0.00,30.4,29.2,00.0,39.1,32.2,11.5,0000.9,0029.65,0020.80,0019.85
2022-09-13 16:47:00,,0826.3,4.99,0.00,30.4,29.2,00.0,39.1,32.3,11.6,0000.9,0029.46,0020.71,0019.75
2022-09-13 16:48:00,,0826.3,5.01,0.00,30.5,28.9,00.0,39.1,32.3,11.9,0000.5,0029.43,0020.71,0019.70
2022-09-13 16:49:00,,0826.4,4.99,0.00,30.4,27.6,00.0,39.1,32.2,11.9,0000.6,0029.79,0020.86,0019.81
2022-09-13 16:50:00,,0826.2,5.01,0.00,30.4,26.9,00.0,39.0,32.1,12.2,0001.1,0030.20,0021.02,0019.96
2022-09-13 16:51:00,,0826.2,4.99,0.00,30.3,27.1,00.0,39.0,32.0,11.9,0001.4,0030.88,0021.35,0020.26
2022-09-13 16:52:00,,0826.2,4.99,0.00,30.3,27.4,00.0,39.0,31.9,12.3,0001.9,0030.38,0021.66,0020.55
2022-09-13 16:53:00,,0826.2,5.01,0.00,30.2,27.7,00.0,38.9,31.9,12.4,0002.3,0030.23,0021.84,0020.74
2022-09-13 16:54:00,,0826.2,5.00,0.00,30.2,28.0,00.0,38.9,31.9,12.1,0002.4,0031.00,0022.04,0020.92
2022-09-13 16:55:00,,0826.2,5.00,0.00,30.2,28.3,00.0,38.9,31.9,12.1,0002.6,0031.83,0022.23,0021.10
2022-09-13 16:56:00,,0826.2,5.00,0.00,30.2,28.5,00.0,38.9,32.0,12.1,0002.4,0032.34,0022.42,0021.22
2022-09-13 16:57:00,,0826.2,5.01,0.00,30.2,28.6,00.0,38.9,32.0,12.2,0002.5,0032.26,0022.44,0021.25
2022-09-13 16:58:00,,0826.2,5.01,0.00,30.2,28.7,00.0,38.9,32.0,12.5,0002.5,0032.39,0022.57,0021.37
2022-09-13 16:59:00,,0826.2,5.00,0.00,30.2,28.9,00.0,38.9,32.1,12.2,0003.0,0032.54,0022.71,0021.52
